Theta_e
334 334 334 332 333 335 336 339 338 337 336 335 335 337 335 334 334 337 338 336 335 334 334 336 334 332 331 331 331 331 331 331 331 331 331 331 333 338 346 345 344 344 346 348 347 347 348 347 347 346 346 345 344 342 342 341 339 336 335 334 332 332 332 332 332 331 331 331 332 330 331 330 330 330 330 330 331 332 332 334 334 334 334 334 334
334 335 334 332 332 333 337 339 337 336 334 336 335 334 334 334 335 335 335 334 333 336 336 335 335 334 333 332 332 332 331 330 331 330 331 332 332 336 346 346 344 343 343 346 348 347 347 347 348 348 348 346 344 342 342 341 340 339 337 335 334 333 333 333 332 332 331 331 332 332 332 331 331 330 330 330 330 331 331 331 334 334 334 333 333
335 334 333 331 332 334 336 337 335 336 337 337 336 335 335 334 335 334 333 333 334 334 334 334 333 333 333 332 332 331 331 332 332 333 333 332 331 332 338 346 345 344 343 343 345 347 347 347 346 347 348 345 343 343 342 342 342 340 338 337 335 334 333 333 333 333 332 331 332 333 332 332 331 331 331 330 330 330 331 331 332 334 334 333 333
337 336 334 333 334 333 334 335 335 336 338 336 336 337 336 337 338 337 336 333 334 333 334 332 332 332 332 333 332 332 332 332 332 331 331 332 331 332 332 335 343 345 344 343 343 345 346 347 348 347 346 347 346 344 344 343 340 340 340 338 336 335 334 334 334 334 333 332 332 333 333 333 332 332 332 331 330 330 330 331 331 333 333 333 332
337 337 339 335 334 333 334 333 334 336 336 337 336 336 335 335 336 336 337 334 334 333 334 333 332 332 333 334 334 333 333 334 334 332 332 331 332 331 332 334 334 339 342 343 343 343 344 345 347 348 348 348 346 345 344 344 343 340 339 338 337 336 334 334 334 334 334 332 332 333 333 333 333 333 332 331 331 331 330 331 331 334 333 333 332
335 336 336 335 333 332 333 332 333 336 338 338 335 334 335 335 334 334 337 333 332 332 331 331 331 331 332 333 333 333 332 333 332 333 332 332 332 332 332 332 332 333 334 339 341 343 344 343 344 345 346 347 347 347 343 343 341 341 341 339 338 337 335 335 335 334 334 333 333 333 333 333 333 333 332 332 331 331 331 331 332 333 333 333 332
336 334 334 334 333 334 333 332 335 338 336 336 334 334 334 334 333 333 332 331 331 333 332 330 330 331 332 332 332 333 333 333 334 334 334 333 332 332 333 334 332 333 333 332 337 341 343 343 344 344 345 345 346 347 347 346 343 341 340 340 339 338 336 336 336 335 334 334 333 333 333 334 334 333 333 332 332 331 331 331 331 333 332 332 332
337 339 336 335 334 334 334 335 336 334 333 333 333 331 331 331 331 331 329 329 330 330 330 329 329 330 331 331 331 332 332 332 333 333 334 334 334 334 334 333 333 332 339 333 332 335 341 342 343 343 343 343 345 346 347 347 346 343 341 339 337 338 337 336 336 336 335 334 333 333 333 333 334 334 333 332 332 332 332 331 331 331 332 332 331
337 337 336 335 333 333 333 333 333 332 331 330 330 330 329 329 328 330 328 325 327 327 325 326 327 329 330 329 330 330 330 330 331 332 334 333 333 333 333 334 335 343 336 335 335 334 337 340 342 342 342 342 341 344 345 346 346 346 343 341 339 339 337 337 337 336 335 335 334 333 333 333 333 334 334 333 332 332 332 331 330 331 332 332 331
335 335 334 334 331 330 331 332 331 330 329 328 327 328 328 326 325 327 327 326 326 324 322 323 326 328 328 327 327 327 328 329 331 333 331 332 332 333 333 333 333 332 333 333 334 334 334 336 338 339 341 340 341 343 345 346 346 347 347 343 341 341 339 337 336 336 336 336 335 334 333 333 333 333 334 333 332 332 332 331 331 331 331 331 330
330 332 332 331 330 329 329 329 330 329 327 326 326 326 326 324 323 324 325 326 324 322 321 321 324 325 325 325 325 325 326 327 329 326 327 328 330 331 331 329 327 326 328 328 330 332 334 333 332 333 334 338 339 341 343 344 346 346 347 346 342 342 341 338 338 337 336 336 336 335 334 334 333 333 334 333 334 332 332 332 331 331 331 330 330
327 327 328 328 328 328 327 328 329 329 326 324 323 322 321 321 321 322 321 322 322 320 320 320 321 319 321 323 323 323 323 326 323 323 325 325 326 327 325 323 321 322 324 324 325 325 325 325 328 327 328 332 335 337 338 340 339 342 343 346 346 343 342 340 339 338 337 336 336 335 334 334 333 333 333 334 334 333 333 332 331 330 330 330 330
326 326 324 327 325 326 324 324 325 325 324 322 321 321 321 321 319 320 319 318 318 318 318 319 317 316 316 318 320 321 322 323 321 322 323 323 323 323 321 318 317 319 322 320 320 319 319 319 319 320 321 325 329 332 336 338 338 336 336 335 334 336 339 339 340 341 339 338 336 335 334 334 334 333 333 334 333 333 333 332 331 331 331 330 330
326 324 324 323 322 322 322 320 321 322 321 321 320 322 318 318 318 316 318 317 315 316 316 317 313 312 313 315 314 319 319 320 319 320 322 322 321 320 318 315 314 317 319 317 316 315 315 316 317 318 319 324 327 329 331 333 332 335 336 336 335 337 337 336 336 339 339 338 336 335 334 334 334 334 334 335 334 334 333 332 332 331 331 331 331
322 323 321 320 319 319 319 319 319 321 316 316 316 316 316 316 316 314 313 315 316 316 315 315 310 312 312 310 308 312 314 315 316 317 320 320 319 317 315 312 313 316 315 314 312 312 314 315 315 317 318 322 325 327 328 327 325 325 322 321 324 326 331 336 338 335 334 336 336 336 335 334 334 334 334 334 334 333 332 332 332 331 331 331 331
320 321 319 318 317 316 316 316 317 318 315 314 314 314 314 314 313 314 312 310 311 311 314 313 312 312 307 309 311 309 306 308 311 314 317 318 316 314 312 310 311 314 311 310 309 310 311 313 314 315 317 315 323 321 327 322 319 320 321 321 322 325 325 325 333 337 336 337 335 335 335 333 334 334 334 334 333 332 332 332 332 331 331 331 331
317 318 319 315 315 315 315 315 315 315 315 314 313 312 312 312 312 312 311 308 308 308 310 313 311 314 310 309 308 308 307 309 310 308 312 314 313 312 311 309 309 311 309 308 308 308 310 311 312 314 314 311 319 313 317 316 314 319 315 319 321 321 322 323 326 330 336 336 336 336 334 333 332 333 333 333 333 333 333 332 332 331 332 332 332
315 315 317 316 314 314 314 314 314 314 314 312 312 312 311 310 310 310 310 310 308 307 306 311 311 312 312 313 314 308 306 309 307 303 310 312 311 309 308 307 308 307 307 306 306 306 310 309 310 311 310 310 316 309 311 310 313 310 311 312 317 318 317 319 323 325 327 329 330 333 335 334 333 331 333 333 333 333 334 333 332 332 332 332 332
313 314 314 315 313 313 313 313 313 313 315 312 311 310 310 310 311 310 309 310 308 305 305 305 307 308 310 311 313 312 310 306 302 304 300 305 307 305 305 306 307 306 306 304 305 305 306 308 308 307 307 308 311 307 306 307 310 310 313 314 315 315 315 316 320 324 325 325 327 327 329 333 334 333 334 333 333 333 333 333 333 333 332 332 332
314 313 314 315 314 312 313 313 313 313 314 310 310 309 310 311 311 309 310 309 307 305 304 305 303 304 309 307 308 310 308 306 305 302 301 298 299 303 304 304 305 304 304 303 303 304 303 304 306 304 305 307 306 304 304 304 305 305 307 312 313 314 315 316 316 317 320 322 324 326 326 328 333 333 334 333 332 333 333 333 333 333 333 332 332
313 313 312 313 315 312 311 312 312 312 315 310 310 309 308 308 307 307 307 308 309 308 305 304 305 304 304 305 305 305 305 304 303 303 301 297 297 298 298 301 301 301 302 302 302 303 303 304 304 304 305 305 303 302 302 302 303 303 307 310 312 313 313 314 313 310 311 317 320 323 324 324 327 333 334 333 333 332 333 332 334 333 332 332 332
311 311 310 311 311 312 311 311 311 313 313 309 308 308 307 307 307 308 307 306 306 307 306 305 304 304 304 304 302 301 300 300 299 299 299 300 296 297 297 296 294 297 300 300 300 302 301 303 301 302 302 302 301 301 301 301 301 303 306 309 310 312 312 312 311 309 310 313 316 318 321 323 326 329 332 333 334 334 333 332 332 334 334 334 333
309 309 309 309 310 312 309 310 311 313 310 308 307 307 307 307 307 306 306 306 305 304 304 304 303 303 302 302 301 300 298 297 297 298 297 296 295 295 295 296 295 294 297 299 300 300 300 300 300 300 301 300 300 300 300 300 304 305 308 309 309 310 309 309 308 307 310 312 313 314 318 322 324 326 326 331 332 333 333 335 334 333 333 334 333
307 306 306 308 309 306 308 307 308 307 306 306 305 304 305 306 306 305 304 304 304 304 302 302 301 301 300 300 300 300 300 298 298 297 296 295 294 292 293 294 294 294 296 297 298 297 299 298 299 299 300 300 300 301 300 300 301 306 306 307 307 308 308 308 307 307 306 307 309 311 316 320 321 322 323 326 331 332 334 333 333 332 333 333 334
305 305 305 306 307 306 305 305 305 306 306 305 305 304 303 304 305 304 303 303 302 302 302 301 301 300 299 300 300 299 298 298 297 296 295 295 294 291 292 293 291 291 293 294 294 296 298 297 298 299 299 299 300 299 299 300 300 304 307 305 306 306 306 307 308 307 305 305 307 310 314 316 317 320 321 324 327 331 333 333 330 326 328 327 330
304 304 304 305 305 305 305 304 304 305 305 305 304 304 303 303 303 303 302 302 302 301 301 301 300 300 300 299 298 298 297 297 296 296 294 293 292 291 291 291 291 290 292 292 294 292 294 296 298 298 298 298 298 298 298 299 300 304 306 303 303 304 305 306 306 307 308 308 308 309 310 312 314 315 316 318 322 323 326 327 325 323 321 319 320
304 304 305 304 304 305 305 303 304 303 303 302 304 303 302 303 303 304 304 302 302 302 301 301 300 299 298 298 298 297 297 297 296 295 295 294 293 292 291 288 288 289 289 291 291 291 292 295 297 297 297 298 298 298 298 299 301 304 305 301 300 304 304 305 306 305 306 306 305 306 306 308 310 309 310 312 316 318 320 323 325 322 321 319 320
305 304 304 303 303 302 303 302 303 303 303 302 302 302 302 302 301 301 302 305 301 300 300 300 299 298 297 297 297 296 296 296 296 295 294 295 294 293 292 290 287 285 288 288 289 290 293 292 295 296 297 297 297 297 301 300 299 304 304 300 299 300 303 304 305 305 305 304 305 305 305 305 305 305 306 309 313 317 319 322 323 322 320 319 321
306 305 303 303 303 302 301 301 301 301 301 302 302 301 301 301 300 300 300 301 302 300 300 299 298 298 297 297 296 295 295 296 295 296 296 294 295 293 293 291 290 287 286 286 288 288 291 293 291 294 296 296 297 298 298 298 300 302 300 299 299 299 302 304 303 303 303 303 304 304 305 305 305 305 308 310 313 314 314 316 317 319 319 320 323
305 304 301 301 301 303 299 299 299 299 300 300 300 301 301 301 300 300 300 300 300 300 300 298 297 298 297 296 295 294 295 294 295 295 295 294 293 293 292 292 292 289 288 286 287 290 290 293 293 292 295 296 297 298 298 297 302 301 299 298 298 299 303 303 302 301 302 303 303 301 302 302 303 305 307 309 311 310 310 311 312 314 317 321 324
303 300 299 299 298 298 297 297 297 298 298 298 299 299 300 300 301 299 299 299 299 298 299 298 298 297 295 295 294 294 294 294 294 294 294 294 293 293 292 292 292 291 289 289 286 290 292 291 293 295 295 295 297 297 297 297 300 300 298 298 298 302 303 302 302 302 302 302 301 303 303 302 301 303 305 307 309 308 308 309 309 312 318 322 321
300 300 298 298 297 296 296 296 297 297 297 298 298 298 299 299 300 299 299 299 298 297 297 297 297 296 295 294 294 294 294 293 293 293 292 293 293 292 292 292 291 291 292 290 288 288 292 292 293 294 295 295 296 295 295 296 298 301 298 298 298 302 299 298 301 302 302 301 301 301 301 301 300 302 304 306 306 306 307 307 307 309 312 316 316
299 298 297 296 296 296 295 297 295 296 296 296 297 297 298 298 299 299 299 298 297 297 297 296 296 295 295 294 294 294 294 292 292 292 292 292 292 291 293 291 291 291 291 290 288 289 291 293 293 294 295 295 294 295 294 295 296 297 299 298 298 297 297 297 298 300 301 301 301 300 300 300 300 303 304 304 304 305 305 304 304 305 306 309 313
299 298 297 296 295 295 295 294 294 295 295 295 295 296 296 297 297 300 298 297 296 296 296 295 294 296 294 293 294 294 293 292 291 291 291 290 291 290 290 291 290 291 292 290 289 289 288 291 292 294 293 295 292 295 294 294 295 297 296 296 297 297 297 297 297 297 300 301 300 300 300 300 300 301 300 300 300 301 302 302 302 303 305 308 307
299 297 296 295 295 294 294 293 293 293 294 294 294 295 295 295 296 297 298 297 296 295 295 294 294 294 293 294 293 293 293 290 290 290 290 290 291 290 290 291 290 290 291 292 290 289 289 289 292 291 292 293 292 293 294 295 296 296 295 295 296 297 298 297 297 297 299 299 299 299 300 300 300 300 299 299 299 300 301 301 302 304 304 305 305
297 297 296 295 294 293 293 292 292 292 292 293 293 293 294 294 295 296 296 296 295 295 295 294 294 294 293 292 292 292 292 290 289 289 289 289 289 290 290 290 291 290 291 292 292 290 290 289 290 290 292 291 292 294 295 295 295 295 295 295 296 296 296 297 296 296 298 300 300 299 300 300 299 299 299 299 299 300 301 301 303 303 304 303 304
297 296 296 295 293 293 293 292 291 291 291 292 292 292 293 293 294 295 296 296 295 295 295 295 299 294 294 292 292 292 290 289 289 288 289 289 290 290 289 289 290 291 292 291 291 291 290 289 289 291 292 292 293 293 294 293 293 294 294 294 295 295 295 296 297 297 299 300 299 299 299 298 299 299 299 299 299 300 300 302 301 302 302 303 304
296 295 294 294 294 292 292 291 291 291 291 291 291 291 291 292 293 294 295 295 296 295 294 295 294 295 293 292 292 291 290 289 289 289 288 288 289 289 289 289 289 290 290 290 291 291 290 290 289 289 291 290 290 291 293 293 292 292 293 294 295 295 295 294 295 297 298 297 296 296 297 297 298 298 299 299 299 299 301 300 300 300 301 302 303
295 294 293 292 293 292 291 291 291 291 291 290 290 290 290 291 292 293 294 294 295 295 294 294 294 293 294 293 292 291 290 289 289 289 288 289 290 289 291 289 289 289 289 289 290 290 289 289 289 289 289 291 290 289 292 293 293 293 291 292 292 294 295 294 294 295 296 296 297 297 297 297 298 299 298 298 299 301 300 299 299 300 301 301 301
295 294 292 292 292 292 291 291 291 292 290 290 290 289 290 290 291 292 292 294 294 294 294 294 294 293 293 293 292 292 290 290 290 289 289 289 289 290 289 289 289 289 288 289 289 289 289 288 288 288 289 289 290 291 292 292 291 292 293 292 290 291 292 293 294 293 295 295 294 295 297 297 297 297 298 299 299 299 299 299 300 301 302 302 301
297 294 293 292 291 291 290 290 290 291 291 291 291 290 290 290 290 291 292 293 294 294 293 293 293 293 293 293 292 292 297 298 299 297 297 297 292 290 289 289 290 289 288 288 289 288 288 288 288 289 288 288 289 289 289 289 290 290 292 293 292 292 293 292 293 295 295 294 294 294 294 295 294 295 295 295 295 297 298 300 300 300 301 302 302
295 294 293 293 291 290 290 289 289 290 290 291 294 294 294 292 291 291 293 293 295 293 294 293 293 293 293 293 298 299 299 300 299 297 295 295 296 295 292 290 290 289 288 288 288 288 288 287 287 287 287 287 288 289 289 290 292 293 292 292 290 291 292 291 292 294 296 295 293 292 293 295 294 294 294 294 296 297 296 297 297 299 300 300 301
293 294 292 291 290 290 289 288 288 290 290 292 293 292 292 295 294 292 293 294 294 292 293 293 291 293 292 292 292 297 299 300 297 296 295 294 293 293 294 294 295 292 289 288 288 288 288 288 288 288 287 287 288 290 290 291 292 292 291 291 290 290 289 288 287 291 296 294 293 292 292 294 294 293 293 294 295 295 296 296 298 299 299 299 300
292 291 290 290 289 289 289 288 288 289 289 294 291 292 292 293 296 294 293 294 294 292 291 291 292 292 291 292 292 293 294 294 295 293 293 294 293 293 293 293 293 293 293 291 290 288 288 287 287 288 288 287 288 290 290 291 291 291 291 291 290 290 289 289 289 288 293 295 292 291 291 294 294 293 292 293 295 295 296 297 297 298 298 299 300
291 290 289 289 288 289 288 288 288 288 288 293 291 292 292 292 293 294 292 292 292 291 291 292 291 291 291 292 291 292 292 299 298 291 289 290 293 293 293 294 293 293 291 290 291 292 290 289 288 288 288 289 289 290 292 292 292 290 290 290 290 290 290 289 289 290 292 294 292 290 289 292 293 292 291 293 294 295 295 297 298 298 299 299 299
290 290 289 289 289 288 288 287 287 287 288 292 291 292 292 292 292 293 290 291 290 290 291 292 291 290 290 290 290 291 290 290 290 290 290 289 290 290 290 289 289 291 292 292 291 292 293 291 289 288 289 290 290 291 293 293 291 290 289 289 290 290 290 290 291 292 293 294 291 290 289 290 292 292 291 292 294 295 296 297 297 298 299 299 299
291 290 290 289 289 290 288 287 287 287 289 292 291 291 291 292 292 292 289 291 290 289 290 291 291 290 289 290 289 289 289 290 292 293 291 290 290 290 289 289 289 289 289 289 290 291 292 291 290 289 290 291 292 292 293 293 292 292 292 291 291 291 291 292 292 292 293 294 293 292 287 290 292 291 291 292 294 295 296 297 298 298 299 299 299
292 292 290 291 291 289 288 287 287 286 288 291 291 291 291 291 293 292 288 288 288 289 289 290 290 290 290 290 289 289 290 290 293 293 293 292 289 289 288 288 288 288 289 293 293 293 293 291 291 291 291 292 293 292 293 292 293 293 294 294 293 292 290 289 288 289 289 292 293 291 289 289 292 290 291 293 294 295 297 298 299 300 300 300 300
293 292 292 292 292 290 289 288 286 286 287 291 291 291 291 291 291 288 287 288 288 288 288 289 289 290 290 292 291 291 292 290 293 291 291 292 289 288 287 287 288 287 288 290 292 292 292 292 291 291 291 291 291 291 292 292 293 293 292 291 289 290 288 286 287 287 288 290 292 292 290 288 291 291 291 292 293 293 294 295 297 298 299 299 300
292 292 293 292 292 292 290 287 287 287 287 291 291 291 291 291 291 287 288 287 286 287 287 288 289 288 290 298 299 292 291 291 292 290 290 291 288 287 287 286 286 286 287 289 290 291 292 292 292 291 291 291 291 292 292 293 292 293 292 289 290 289 286 286 285 286 288 289 291 293 289 288 290 291 290 292 293 294 295 296 297 299 299 299 299
292 292 294 293 292 292 291 289 296 289 287 291 292 290 291 291 290 286 288 286 287 286 286 288 289 289 289 292 295 295 293 292 290 290 290 290 288 287 287 286 286 286 287 288 288 288 289 289 289 289 290 291 293 292 293 293 293 295 294 292 292 289 286 286 286 286 285 287 292 295 290 289 290 291 292 291 290 294 296 297 299 302 305 306 307
Wind_Speed
0 0 1 2 2 2 4 4 3 4 4 3 3 4 5 4 4 4 3 4 4 4 3 3 3 2 2 2 2 3 4 4 4 3 1 2 3 5 10 11 11 11 11 11 12 13 14 14 14 14 14 13 14 14 14 14 13 14 13 13 12 11 10 9 9 9 8 7 7 7 7 7 7 7 8 7 7 7 5 5 6 6 5 6 7
2 0 0 2 2 2 3 4 4 3 2 4 4 4 5 5 4 2 2 2 2 4 3 4 4 4 4 3 4 4 4 5 4 3 3 2 3 3 8 11 11 11 11 12 13 13 13 13 14 14 14 14 13 13 13 13 14 14 14 13 13 12 12 10 10 9 9 8 9 7 8 7 7 7 7 8 9 9 6 7 7 7 6 6 6
3 3 1 1 2 2 3 4 5 5 4 5 3 4 4 3 2 3 3 3 3 4 4 5 4 4 3 3 4 3 4 4 4 4 4 5 3 3 4 9 11 11 12 12 12 12 12 13 14 14 14 14 13 14 14 13 16 15 15 14 14 13 13 12 11 11 10 9 10 9 9 9 8 8 8 8 9 10 9 8 8 9 9 8 6
2 2 2 2 2 3 3 4 4 5 3 3 4 3 3 2 3 3 2 3 4 4 3 3 4 5 4 5 4 4 3 4 3 4 4 4 6 4 4 4 8 10 11 11 11 11 12 13 14 15 15 15 14 14 13 12 13 15 16 15 15 14 14 13 13 12 11 11 10 10 10 10 10 9 9 9 9 9 9 9 9 9 10 10 9
1 4 4 3 1 3 3 2 3 4 3 1 2 3 3 4 5 3 4 4 4 5 4 4 4 5 5 5 5 5 5 5 5 4 4 4 5 5 5 4 4 6 9 11 11 12 12 13 14 15 15 15 15 14 14 13 13 15 16 14 15 15 14 14 14 13 13 12 12 11 11 11 11 11 10 10 9 9 9 9 9 8 10 10 11
2 3 4 3 3 3 2 3 4 4 4 4 4 4 4 4 5 4 4 4 4 4 4 5 5 5 5 4 4 5 5 5 5 5 4 5 5 4 5 4 4 5 5 8 11 11 12 12 13 14 14 15 14 15 15 12 16 14 15 16 15 15 15 15 15 14 14 13 13 13 12 12 12 12 11 11 10 10 9 9 7 9 10 12 12
3 2 4 3 4 3 4 3 3 4 4 5 5 5 5 4 5 5 5 5 5 4 4 5 4 5 5 5 5 5 5 5 5 5 4 4 3 4 5 4 4 4 5 5 7 10 12 12 12 12 13 14 15 15 16 15 14 15 16 17 16 16 15 16 16 16 15 14 13 13 13 13 13 12 12 12 11 11 11 10 8 9 10 11 12
1 3 5 6 5 5 5 5 4 4 4 5 5 6 4 4 5 5 6 6 6 6 5 5 5 5 5 5 5 4 5 5 5 6 6 5 5 4 5 5 4 5 5 4 5 6 10 11 11 12 13 13 13 15 15 16 16 16 15 14 16 13 16 16 17 16 16 16 15 15 14 14 14 14 13 13 12 12 12 11 11 10 11 12 12
7 7 8 6 5 5 4 4 3 5 5 5 5 5 5 5 6 6 5 4 5 6 7 6 6 5 5 4 5 5 5 5 6 6 6 5 5 6 6 6 6 7 7 6 5 5 7 10 11 12 12 12 13 13 15 16 17 17 17 16 18 16 16 16 17 17 16 16 16 15 15 15 15 15 14 14 14 13 13 12 12 12 12 12 12
7 7 7 6 5 5 4 4 4 5 5 5 5 5 6 6 6 6 6 5 7 7 7 7 5 6 5 5 6 5 5 6 6 5 5 6 6 6 6 6 8 9 8 8 8 7 5 7 11 14 14 13 12 13 14 16 17 18 18 17 18 19 18 15 14 16 17 18 18 17 16 15 16 15 15 15 14 14 14 14 13 13 13 13 12
8 7 7 6 5 5 5 4 5 5 6 6 6 6 6 6 6 6 6 5 6 6 6 6 5 5 5 6 5 4 4 3 5 7 7 7 7 7 8 8 8 9 9 11 11 11 9 8 8 7 9 15 15 15 15 14 15 17 17 17 16 17 18 18 20 20 19 19 18 18 15 15 16 16 15 15 16 16 15 15 15 14 14 14 13
8 8 8 6 6 6 6 5 5 6 7 7 6 6 6 6 6 5 6 5 7 7 7 6 5 3 4 6 4 3 3 2 6 7 6 7 7 7 8 8 9 9 10 10 10 11 10 10 9 9 8 12 18 16 16 14 14 14 16 18 17 18 19 20 18 16 19 19 19 19 15 14 16 17 18 17 17 17 17 16 16 15 16 15 14
7 8 7 6 5 5 6 6 6 7 6 5 4 6 6 5 3 4 6 6 8 8 9 5 5 6 3 3 5 4 2 3 7 8 7 6 6 8 8 10 10 9 9 9 11 11 10 10 9 9 9 9 12 17 16 14 12 16 18 20 22 21 20 19 20 21 21 21 19 19 14 14 15 17 19 18 18 19 18 17 16 15 16 16 15
7 7 7 6 5 5 6 6 6 5 5 4 5 6 6 6 4 4 4 5 5 8 9 6 6 4 5 7 4 6 2 3 6 8 6 6 7 8 9 10 11 9 9 10 10 11 11 9 9 10 9 9 10 10 12 11 11 15 17 17 19 20 20 20 18 19 19 16 18 19 14 18 18 18 20 20 20 19 19 17 17 17 17 17 16
6 6 5 5 5 6 6 5 5 4 6 7 6 7 6 6 6 4 4 4 4 7 9 8 4 5 1 1 4 7 6 6 2 8 6 6 7 9 9 10 12 9 9 9 10 10 9 9 10 10 10 9 9 9 10 13 18 23 24 24 25 25 26 25 19 14 16 19 18 21 19 18 20 21 22 22 20 19 19 20 19 19 18 17 17
6 5 6 6 6 6 5 6 6 5 6 7 7 7 6 6 6 7 3 5 5 6 7 9 8 6 5 2 3 1 5 3 8 7 2 6 9 9 9 11 10 10 9 11 10 9 9 9 10 10 9 11 8 10 9 10 17 20 22 23 24 24 25 26 26 23 15 15 18 20 20 20 24 21 23 21 19 18 18 19 20 21 19 19 18
6 6 6 7 6 6 6 5 6 6 6 7 6 5 5 5 6 6 6 3 5 4 7 8 10 8 3 3 3 3 3 7 9 3 6 4 7 8 10 12 9 10 9 10 9 9 9 10 10 8 10 11 8 11 10 12 11 11 13 19 25 24 24 25 26 26 24 20 18 19 22 18 18 20 23 20 18 18 19 20 21 21 21 21 20
7 7 7 6 7 6 6 6 7 7 6 6 5 5 6 6 5 5 6 5 5 7 6 6 7 8 8 6 4 3 5 6 5 7 3 2 5 7 8 10 7 10 8 11 12 10 9 9 9 9 10 10 8 11 10 11 13 11 11 14 25 25 23 24 25 25 26 26 26 24 21 22 22 21 21 19 22 20 21 22 22 22 23 23 23
7 6 6 6 6 6 6 6 6 6 5 6 6 5 5 4 4 5 5 5 6 8 7 5 4 7 7 7 7 6 7 6 5 6 8 3 4 9 6 10 6 8 9 11 11 10 9 9 9 10 10 9 9 11 11 12 15 17 22 23 24 24 22 21 24 24 25 25 25 26 27 25 21 21 23 24 23 21 23 23 23 24 24 23 24
7 7 6 6 6 6 6 6 6 5 5 6 5 4 5 4 4 4 4 5 5 7 5 6 6 5 5 7 6 6 7 8 5 3 2 9 9 3 3 10 4 5 8 10 11 9 10 9 10 11 9 9 10 11 11 12 12 12 12 25 25 24 24 22 20 20 22 24 26 27 28 26 27 18 21 22 22 24 24 23 23 23 24 24 24
8 7 6 6 5 5 5 5 5 4 4 5 4 4 4 4 4 5 5 6 5 4 5 6 6 6 5 6 6 6 6 7 7 7 6 5 7 11 15 6 2 5 7 9 10 8 10 8 10 10 9 9 11 11 12 12 11 12 14 24 25 24 24 22 19 19 19 22 25 26 26 27 26 27 18 26 28 24 23 24 25 25 25 25 25
7 7 6 5 6 5 5 5 4 5 4 4 3 3 3 3 4 4 5 7 6 7 8 7 7 7 7 6 6 5 5 6 7 7 4 4 6 10 9 15 16 7 6 11 11 7 9 7 9 9 9 9 10 11 11 12 11 11 16 26 24 24 23 23 21 20 20 20 23 25 26 25 25 25 25 18 22 25 26 23 26 27 27 27 26
6 6 5 5 5 5 5 4 5 5 5 5 4 4 4 4 5 7 8 8 8 9 9 8 8 8 7 7 7 7 6 6 6 6 4 4 5 5 8 9 10 14 9 9 9 8 8 8 9 9 9 9 10 11 11 11 14 17 25 23 24 24 24 22 21 20 19 18 21 21 24 25 25 25 25 24 19 26 28 29 30 29 29 29 27
6 6 5 5 5 5 4 5 6 6 6 4 5 5 5 6 6 7 7 8 8 9 8 8 8 7 8 7 8 8 8 7 6 6 5 5 4 4 6 9 6 5 9 10 4 9 6 9 9 9 9 9 10 10 10 11 12 25 19 22 23 24 23 23 21 20 20 22 21 21 24 25 26 27 26 27 26 22 29 31 29 28 29 28 28
5 6 4 5 4 6 6 6 6 6 5 6 5 7 6 6 6 7 8 8 8 8 8 7 7 8 8 8 8 9 8 6 7 6 5 4 5 6 5 4 6 9 9 8 7 9 3 8 8 9 9 10 9 9 10 10 10 19 23 15 24 22 23 23 23 22 22 21 21 21 23 25 26 26 26 26 25 25 19 29 26 24 24 24 26
5 4 3 4 5 4 5 6 5 6 6 6 6 6 6 7 6 7 7 7 8 8 7 7 8 8 8 9 8 8 7 7 6 6 6 6 6 6 6 5 4 7 7 8 7 8 3 6 8 8 8 10 10 9 10 11 10 19 24 17 15 21 22 21 23 24 23 22 22 22 22 23 23 24 26 27 25 23 22 20 25 23 22 22 23
5 3 4 5 5 6 6 7 6 6 6 6 6 7 6 7 7 7 7 7 8 8 8 9 10 10 10 8 8 7 6 6 5 5 4 4 4 5 6 10 7 5 9 6 7 4 7 9 9 8 9 10 10 11 11 11 13 22 23 12 11 18 20 20 21 24 23 23 23 23 21 20 19 22 23 23 23 21 21 16 19 23 25 25 23
4 4 4 5 6 6 7 7 6 6 6 6 6 7 7 8 7 7 8 5 8 10 9 10 10 10 9 7 8 6 5 4 4 4 4 4 4 4 5 5 7 10 9 10 9 7 5 10 10 5 9 10 10 10 14 15 11 22 18 10 10 12 17 20 22 23 22 22 23 22 20 18 21 22 23 23 24 22 20 21 17 21 23 27 26
5 4 5 4 6 6 7 7 7 6 7 6 6 6 7 7 7 7 7 6 8 9 8 9 8 8 8 8 6 5 3 3 3 4 4 3 3 3 4 5 5 5 8 9 10 11 11 11 10 9 10 10 10 9 11 11 14 18 12 11 11 10 15 21 21 19 19 20 21 22 18 20 24 23 23 23 22 21 21 20 21 19 21 25 27
5 5 6 7 6 7 7 7 7 7 7 7 6 6 6 7 6 6 5 6 8 8 8 8 7 7 7 6 4 5 3 4 5 4 4 5 5 5 5 4 4 5 6 8 9 7 9 11 9 11 12 11 9 9 8 11 17 19 13 12 12 11 19 21 19 18 19 19 20 20 20 23 24 24 23 22 20 20 21 21 19 20 21 27 28
7 6 7 7 7 7 6 6 7 7 7 7 7 7 6 6 5 6 6 7 9 8 7 7 5 7 6 5 3 4 4 4 4 5 5 6 6 5 5 4 5 3 4 5 9 5 6 9 10 11 11 11 11 10 10 9 13 19 14 13 12 18 25 14 18 18 18 19 18 20 23 23 22 22 22 19 20 22 23 25 24 22 21 25 27
7 7 7 7 7 7 6 6 7 7 7 7 7 6 6 5 5 7 6 8 9 8 6 5 5 5 5 4 3 3 3 4 5 6 6 5 5 5 5 5 4 3 3 5 7 10 6 7 9 10 11 12 11 12 12 10 11 16 12 12 14 19 12 12 14 17 18 18 18 19 21 22 21 21 22 22 23 24 25 26 25 22 21 18 21
7 8 7 7 7 6 7 7 7 7 7 7 6 6 6 6 5 6 6 7 8 6 6 5 4 4 4 3 3 4 3 5 5 5 5 5 4 4 4 4 5 5 4 5 7 9 6 5 7 8 10 11 11 11 12 12 13 12 11 10 12 12 12 10 11 15 15 17 19 19 20 20 20 22 23 23 25 25 24 23 22 21 20 18 18
8 8 8 6 6 6 6 6 6 6 6 6 6 6 7 6 6 4 6 7 7 6 6 4 3 3 3 3 4 4 4 4 4 4 4 4 4 5 4 5 5 6 6 5 6 8 11 8 8 7 8 8 9 9 12 13 12 13 13 11 9 9 10 11 11 10 15 18 19 19 19 19 19 20 22 22 22 22 22 21 21 21 19 18 17
7 8 7 7 7 6 6 6 6 6 5 5 5 6 6 6 5 4 4 6 6 6 5 4 3 3 4 4 3 3 2 3 3 3 3 3 3 4 5 4 5 6 6 5 6 8 10 10 8 9 8 9 9 11 11 10 11 11 13 12 10 9 9 10 11 10 15 18 20 19 19 19 18 19 20 21 22 22 22 20 20 19 17 16 16
9 7 7 7 6 5 6 6 6 5 6 5 6 6 5 5 4 4 3 4 4 5 5 4 3 3 4 4 1 1 1 3 3 3 3 3 3 3 4 5 4 6 6 5 6 7 8 10 9 9 9 10 9 10 10 9 10 11 11 13 12 11 11 10 11 12 15 21 21 21 19 19 19 19 19 21 21 21 21 19 16 16 16 16 16
8 8 7 5 5 5 6 5 5 6 5 5 5 5 4 3 3 3 3 2 4 5 4 4 4 4 4 3 2 1 1 3 3 4 3 4 4 4 5 5 5 6 6 6 7 7 8 10 11 8 9 9 9 10 10 11 10 9 10 12 12 12 12 11 11 11 15 20 19 18 18 18 19 19 18 19 21 21 21 16 17 17 16 16 17
8 7 6 5 5 5 5 5 5 5 5 5 5 4 4 3 3 3 2 2 3 4 4 3 3 4 4 3 3 2 1 1 2 3 4 4 5 5 5 6 6 6 6 7 7 8 8 9 10 11 8 10 10 8 10 10 11 12 10 10 11 11 12 13 10 9 8 8 9 11 13 14 16 18 17 18 20 22 17 17 20 20 19 17 18
9 7 6 6 4 5 5 5 5 4 4 4 4 4 3 3 3 3 3 3 2 3 2 3 3 4 4 4 3 2 1 0 1 3 4 5 4 6 5 6 6 6 7 7 8 8 8 9 9 9 10 8 8 12 10 9 10 10 12 13 12 11 10 10 12 10 8 11 12 15 15 15 17 15 15 18 19 17 18 21 22 21 19 18 17
8 7 6 5 4 4 4 4 3 3 4 4 4 3 3 3 3 3 3 3 2 3 3 2 3 4 4 3 3 2 2 2 2 3 4 4 4 6 7 5 6 7 7 8 8 8 9 9 9 11 9 10 10 9 10 10 10 9 8 11 14 13 15 13 11 12 13 10 12 9 9 10 10 13 15 16 18 20 21 21 20 19 20 19 18
7 7 6 5 5 5 4 4 4 4 5 4 3 3 3 3 2 3 3 2 1 3 3 1 1 2 3 3 2 4 3 4 5 5 6 6 4 5 8 6 7 7 8 7 8 8 8 8 10 9 10 10 10 11 12 11 12 13 14 12 13 13 13 15 15 12 10 12 12 10 9 7 9 10 10 10 11 16 15 18 17 21 20 17 16
7 6 5 4 4 4 4 4 4 4 4 3 4 5 4 2 3 3 2 2 1 2 4 2 1 1 2 2 1 2 4 7 8 8 8 10 10 8 8 7 8 7 8 8 9 9 9 10 10 11 12 12 12 12 12 12 12 13 14 14 15 13 13 16 15 8 10 10 11 12 10 6 8 10 8 10 9 10 10 10 11 14 16 17 17
7 6 5 5 4 3 4 4 4 4 3 3 5 5 7 6 3 4 4 4 4 3 0 3 3 2 2 1 1 4 5 6 6 9 9 11 12 13 14 14 12 9 8 9 9 9 10 10 10 11 11 13 13 12 12 13 13 14 14 14 14 14 14 15 16 10 3 7 12 12 14 5 5 10 10 9 10 10 9 11 15 19 19 18 18
7 5 5 4 4 3 3 4 4 4 3 4 5 7 9 9 7 5 5 5 4 3 3 2 1 2 3 1 2 3 4 4 5 5 7 11 13 14 15 15 15 15 13 9 10 10 10 10 11 11 12 12 13 12 13 14 15 15 14 14 14 14 16 15 13 16 12 9 12 14 17 11 6 9 12 10 9 10 12 15 19 19 20 20 19
7 7 5 4 4 3 4 4 4 2 3 6 8 9 9 9 9 7 4 4 3 4 4 3 3 2 2 1 2 4 5 8 7 5 5 7 11 15 15 14 13 15 16 17 14 10 9 10 10 12 12 13 14 13 13 16 16 17 17 15 14 14 13 15 13 15 14 11 13 13 16 15 6 10 11 11 10 10 11 14 19 20 20 20 19
8 7 5 5 4 4 4 4 3 3 4 6 8 9 9 10 10 7 3 3 3 4 4 4 1 3 3 1 2 5 5 6 6 6 5 6 9 10 10 9 8 11 14 15 15 16 12 9 10 12 14 12 13 15 16 16 17 16 17 17 17 17 16 17 17 18 16 10 13 12 15 15 8 10 12 11 9 10 10 14 18 19 20 20 19
8 8 6 5 4 4 3 3 4 4 3 5 7 9 9 9 9 7 3 3 3 3 3 3 3 1 2 3 3 4 5 7 7 9 7 8 10 9 9 8 8 9 9 10 10 9 9 9 10 11 13 13 13 15 16 15 16 15 14 17 19 19 18 15 14 12 13 9 12 9 12 14 7 9 11 11 10 10 9 12 17 19 20 20 20
6 5 4 4 4 4 3 4 4 4 2 5 7 8 8 7 6 3 3 3 3 3 3 3 3 3 3 4 4 6 6 7 11 15 14 10 8 8 9 8 8 8 8 9 14 13 12 11 11 12 12 15 17 17 16 17 16 15 14 14 15 15 15 14 14 12 12 8 9 10 11 13 9 9 11 10 9 10 9 9 13 17 19 20 20
7 6 6 4 5 5 3 3 4 3 1 2 5 7 7 5 4 3 3 3 3 3 3 3 3 3 3 3 4 5 6 7 13 16 16 13 7 8 8 8 8 7 9 9 12 15 16 17 19 20 21 21 21 20 22 24 18 18 16 15 15 14 13 14 14 12 12 8 7 8 11 15 11 8 11 10 9 10 11 11 11 14 19 20 21
7 7 5 5 4 5 5 4 4 4 2 0 2 5 5 4 3 3 2 3 3 3 4 3 3 3 4 9 8 4 6 8 14 17 16 10 7 7 7 8 10 10 10 9 9 10 14 16 18 19 20 20 20 20 20 21 21 18 15 15 17 13 14 16 19 14 13 9 9 9 10 13 10 7 9 10 9 8 10 11 11 12 16 15 19
7 6 6 6 5 4 4 5 6 5 3 3 2 3 4 3 2 2 2 3 4 4 4 5 5 5 6 7 9 8 6 10 16 16 17 11 6 7 6 7 9 10 10 11 11 12 12 12 12 13 13 15 14 13 15 21 21 18 14 15 14 13 15 15 14 14 15 6 3 3 8 11 8 9 7 9 9 9 8 9 10 8 5 6 7
Wind_Direction
139 356 355 6 331 334 328 301 286 271 273 279 258 272 271 268 265 264 264 267 274 279 272 305 309 266 233 267 269 275 276 280 283 290 321 196 203 226 221 222 226 230 235 238 240 242 239 238 237 237 237 235 235 230 232 229 216 199 202 204 204 207 210 212 212 220 215 212 206 208 211 212 225 230 225 227 246 236 223 214 192 182 204 189 164
154 170 86 317 354 320 284 273 275 274 267 283 275 268 271 276 271 269 289 305 312 308 344 326 316 321 327 311 297 294 300 294 296 293 274 248 231 234 227 227 233 236 240 243 245 245 247 248 249 247 244 246 248 253 250 242 237 207 206 208 204 207 208 207 213 220 217 211 210 209 213 214 217 222 226 231 237 230 234 244 204 191 197 207 174
143 148 138 42 8 338 355 350 339 313 282 259 270 260 266 262 302 346 358 351 343 343 3 345 333 330 322 316 305 315 305 302 289 300 316 303 277 251 245 237 239 244 244 247 251 255 252 251 254 255 254 252 251 253 258 247 224 214 209 210 204 206 205 205 210 215 221 214 214 214 219 217 216 217 219 224 230 233 235 246 233 211 196 209 194
345 81 79 53 19 12 351 4 321 314 310 292 301 317 333 341 357 5 15 20 355 1 356 3 341 332 334 330 328 328 313 308 298 299 300 297 298 293 274 268 256 254 255 254 255 254 255 255 255 256 257 257 257 255 254 243 242 228 213 211 203 205 205 205 207 212 219 221 215 216 223 222 218 219 216 216 223 230 232 239 253 209 206 206 203
40 85 83 88 21 31 24 354 334 328 302 293 0 356 13 8 8 352 9 7 8 351 347 355 352 340 340 330 333 320 316 314 300 299 288 282 283 283 282 271 273 277 271 266 261 256 254 256 257 259 260 259 257 259 256 248 234 233 239 222 208 205 207 207 207 210 216 220 215 213 220 227 223 221 219 217 219 224 223 232 248 201 204 211 204
48 52 77 77 63 56 33 334 330 335 331 19 21 8 9 14 355 0 358 4 355 335 353 346 337 332 338 329 331 316 321 318 300 283 276 280 274 281 274 270 261 262 269 273 270 264 259 255 254 258 260 262 261 257 259 242 246 247 245 241 222 208 208 207 211 211 214 218 215 215 218 224 225 224 220 218 215 216 218 225 237 195 205 208 209
111 165 90 99 74 24 352 327 346 4 9 20 27 12 14 20 8 10 352 355 347 343 359 341 333 330 322 329 320 319 323 311 307 299 289 281 287 285 294 293 283 269 265 268 272 270 264 258 255 250 253 256 257 257 255 256 250 233 246 243 234 216 209 210 212 213 213 214 218 217 218 220 226 225 220 219 214 212 213 217 221 201 207 211 210
141 141 94 68 63 59 42 39 48 54 43 32 33 24 2 19 17 24 11 359 0 358 359 348 336 326 321 323 315 321 317 314 311 305 300 307 299 297 296 289 282 275 264 252 257 266 261 263 258 255 253 253 254 254 254 253 249 244 230 243 249 229 224 212 212 214 214 214 219 216 218 217 221 224 219 217 213 212 210 212 214 209 202 209 212
83 82 82 77 69 73 59 55 49 58 49 38 37 19 21 16 13 14 23 360 7 0 355 349 334 325 322 328 327 330 329 322 319 318 320 320 317 319 324 327 328 322 321 307 284 270 273 272 270 265 260 256 251 249 252 252 253 250 248 226 232 225 236 229 219 215 214 218 221 217 218 219 217 222 220 214 213 215 210 207 213 214 209 207 210
70 80 83 83 76 66 54 44 47 50 49 40 29 20 26 26 14 7 10 15 16 4 347 339 327 324 326 328 326 337 336 344 341 346 1 359 357 358 346 356 356 355 348 339 325 306 310 318 311 306 300 281 267 252 251 252 251 252 253 240 227 225 223 225 239 231 215 219 218 222 222 218 219 220 222 218 215 215 215 207 210 213 212 210 208
59 61 68 65 65 54 48 34 41 45 42 34 25 22 25 20 26 6 10 25 28 2 343 324 327 321 319 315 318 325 350 1 21 28 24 24 26 20 27 21 13 11 11 13 15 9 6 359 353 343 320 316 301 285 267 259 254 253 254 251 246 229 217 215 218 224 226 220 220 222 222 215 217 219 220 219 217 213 216 211 208 213 210 207 203
57 58 59 51 49 48 43 33 38 48 43 38 26 26 24 20 17 16 11 12 26 6 352 341 322 323 313 316 308 318 346 55 40 31 24 24 27 28 29 18 19 10 17 21 25 23 19 14 7 357 349 344 339 322 299 285 286 277 268 262 251 235 218 215 214 223 231 222 224 226 221 213 215 219 220 219 218 213 214 214 209 207 208 205 202
55 57 57 55 48 43 41 31 36 47 51 45 34 35 31 30 13 21 21 23 20 5 356 326 8 349 332 325 319 331 358 82 52 30 23 21 28 36 28 24 17 9 19 18 21 19 15 11 2 355 357 359 359 355 345 326 323 334 327 320 314 306 279 251 228 231 232 220 227 231 222 217 213 216 221 221 217 216 213 213 210 206 204 204 204
54 55 55 53 48 41 37 34 39 53 60 49 45 41 37 33 17 25 19 40 38 6 360 1 26 358 330 333 340 329 1 41 57 26 20 21 32 39 31 25 14 7 19 15 18 15 9 7 359 356 358 5 9 15 11 15 9 7 10 358 349 341 339 324 287 253 239 228 237 237 225 226 213 214 215 219 218 215 212 210 208 205 201 199 201
52 55 59 51 54 51 42 44 51 53 55 47 43 42 34 36 31 38 7 24 45 20 17 31 10 313 250 33 356 360 335 2 360 22 15 30 38 41 32 24 9 17 16 17 16 8 4 1 358 357 357 8 14 15 24 24 21 19 15 9 4 3 357 347 335 315 272 258 247 237 221 228 221 214 215 216 218 213 213 211 208 204 203 201 202
51 53 60 55 53 54 53 53 51 47 62 65 51 49 38 36 36 34 35 45 20 22 22 20 27 5 20 17 293 45 333 12 336 322 21 45 44 40 36 16 7 20 15 19 9 1 0 357 359 357 4 4 16 15 17 20 13 10 7 3 3 2 360 356 350 336 315 276 273 263 241 220 225 219 217 216 214 210 209 212 207 204 202 201 200
54 56 59 58 53 51 56 55 57 51 63 66 62 56 53 48 42 49 40 68 44 28 19 21 30 28 48 15 1 20 1 318 323 275 16 15 39 43 35 16 9 19 15 15 3 2 356 357 360 3 10 359 12 19 11 7 8 4 1 359 360 359 357 354 353 349 338 332 310 282 271 249 234 232 222 219 210 209 206 208 207 207 203 202 200
58 56 58 58 56 52 53 58 58 59 61 70 69 59 50 49 40 62 57 42 87 51 31 11 30 32 37 51 49 29 336 320 18 313 359 63 67 44 32 19 4 18 16 8 3 360 357 357 359 9 6 358 13 15 10 5 2 357 357 355 358 356 353 350 348 351 351 348 339 329 300 259 234 225 225 220 215 212 206 206 205 207 205 204 203
57 56 59 63 61 52 54 61 66 66 67 70 64 61 60 59 53 60 62 61 56 66 48 8 9 31 27 35 46 50 34 30 8 303 331 354 63 10 22 16 2 23 15 8 360 355 354 355 2 8 1 358 16 10 7 1 358 354 351 353 354 352 349 346 347 348 349 346 340 334 330 321 279 242 225 219 214 214 214 208 206 207 208 206 206
66 58 55 61 62 53 53 59 67 69 75 73 76 67 63 53 61 62 66 69 71 73 63 39 56 11 12 28 27 38 41 42 34 23 314 327 319 22 102 6 5 33 12 7 357 355 350 356 4 2 359 3 15 8 3 356 353 349 346 348 348 347 345 345 346 345 344 343 339 336 337 331 324 284 225 223 219 212 215 211 210 209 208 207 207
64 64 54 55 59 57 52 61 64 64 69 72 70 71 75 72 57 53 59 53 55 64 67 46 39 29 14 18 26 34 35 36 21 20 21 339 315 345 333 356 62 14 9 9 351 349 349 358 5 357 357 7 9 5 358 354 349 345 343 344 343 343 342 344 347 344 340 339 339 337 335 334 329 321 282 226 219 214 212 212 211 211 210 209 207
63 61 56 49 56 51 55 58 59 67 65 66 59 51 43 53 54 60 57 58 46 53 56 49 51 47 52 54 50 27 34 26 25 16 4 28 339 332 344 341 337 352 16 357 346 350 343 6 1 358 0 9 4 358 354 349 346 341 340 342 341 342 344 346 343 340 339 338 338 335 334 334 332 328 318 280 227 211 214 213 215 212 210 209 207
65 55 52 48 49 48 52 56 59 63 67 65 63 60 49 52 56 61 61 60 55 55 56 58 60 56 51 54 60 57 53 52 33 22 31 15 341 333 332 339 320 323 347 354 335 350 336 13 359 360 360 1 358 351 348 343 343 339 339 341 343 344 344 342 338 337 340 337 335 331 333 335 335 332 322 310 279 236 214 214 215 216 213 210 208
59 58 44 42 51 48 49 55 58 60 61 65 59 58 57 58 58 63 63 61 60 61 61 60 60 62 54 51 55 56 52 50 41 39 36 23 11 337 333 328 308 310 316 335 331 351 330 14 356 356 352 354 350 346 341 340 338 339 340 341 343 342 341 339 337 339 339 336 331 331 333 336 336 334 330 322 310 283 231 217 217 218 216 215 212
58 66 51 51 57 56 54 57 58 58 62 56 49 51 54 58 62 63 65 65 63 65 65 64 67 65 65 56 58 56 54 46 45 43 32 21 25 0 340 335 318 318 327 339 337 330 347 1 354 350 346 348 344 343 339 337 335 337 340 339 339 338 338 338 339 338 335 332 332 333 332 334 337 338 339 330 317 309 263 220 218 220 215 213 215
87 82 79 70 65 67 69 66 63 62 62 60 55 51 56 60 59 63 63 62 61 62 65 65 61 63 64 63 55 56 54 46 46 43 31 23 17 7 333 332 316 320 316 331 337 344 326 350 351 344 347 347 341 337 338 333 331 336 338 337 332 335 335 336 337 336 334 334 334 331 328 331 335 341 342 339 328 310 300 244 215 213 214 214 215
101 99 78 72 66 63 63 61 56 59 58 58 54 53 56 60 58 61 58 57 58 61 59 63 64 64 64 66 64 56 52 48 49 39 31 34 15 352 356 351 343 342 336 320 323 352 323 324 347 343 352 345 338 334 334 333 330 333 335 332 327 330 332 333 335 337 335 334 329 326 327 331 334 338 341 335 327 318 300 278 234 212 209 212 212
95 84 69 74 69 65 60 57 55 53 53 55 56 55 55 61 58 60 61 56 64 63 67 68 68 68 69 66 65 57 46 44 43 36 32 19 7 358 4 7 356 340 339 332 335 326 340 335 333 0 350 340 332 330 327 330 327 331 331 328 328 328 329 330 333 334 332 328 325 323 327 331 332 336 336 334 331 327 318 301 273 234 213 208 212
88 76 72 65 68 66 61 54 50 48 47 43 48 54 59 61 63 63 64 61 68 70 72 73 69 71 68 65 68 59 41 32 23 26 12 7 8 3 12 15 355 344 345 336 330 332 335 348 334 331 340 330 326 326 326 327 325 330 329 327 325 324 324 327 327 326 326 324 324 324 327 330 331 330 331 332 332 334 329 319 302 267 227 214 211
88 85 76 70 61 61 61 57 52 50 47 41 42 41 51 62 67 69 73 69 65 68 72 74 71 74 72 67 61 56 32 27 22 2 7 5 4 7 7 359 1 14 341 333 318 324 324 328 327 323 330 327 323 320 322 322 322 330 327 324 323 318 321 325 321 321 322 322 323 324 329 329 325 322 324 326 325 329 329 323 315 295 256 226 216
88 81 75 68 66 58 59 57 52 50 45 40 37 39 41 54 59 66 59 68 73 74 70 75 72 75 73 68 53 52 27 25 17 16 12 11 7 5 2 3 354 3 327 327 321 319 327 315 320 318 317 321 323 320 320 318 324 330 325 321 319 320 325 320 320 319 319 320 320 326 329 323 319 317 318 318 322 327 326 323 319 315 289 244 219
90 85 76 74 67 64 57 57 54 49 47 40 37 39 44 43 54 62 57 73 80 82 78 74 82 79 77 68 55 52 32 33 28 21 18 13 11 3 357 352 337 324 305 314 317 316 324 310 312 310 318 320 322 321 320 320 325 325 321 320 317 320 318 317 316 317 317 318 321 325 322 318 316 317 318 320 323 323 322 318 315 312 309 270 224
91 81 79 73 69 67 60 55 54 51 49 42 34 41 44 38 37 66 66 75 86 90 90 80 77 83 84 83 59 46 46 46 26 18 16 9 0 353 339 338 330 319 320 316 316 311 305 303 305 315 317 319 321 320 317 320 319 317 315 310 313 316 315 313 313 315 311 313 318 316 313 313 314 317 320 319 318 317 315 311 309 310 305 291 245
89 85 80 74 70 64 64 56 56 55 53 48 40 46 43 37 27 43 80 84 91 97 95 91 87 91 94 79 54 51 46 52 26 20 3 359 355 347 339 339 327 322 317 315 308 306 311 316 313 310 308 314 310 314 315 317 315 316 315 317 310 306 312 312 311 305 307 310 310 310 307 309 310 313 313 312 311 310 307 306 307 308 304 294 268
84 85 83 79 72 69 67 59 57 57 51 52 46 50 45 42 34 23 63 100 108 108 104 117 122 106 71 67 65 68 48 48 15 360 358 352 344 342 329 322 317 308 306 302 302 303 305 308 309 311 312 315 311 313 314 310 310 314 313 315 314 310 305 303 301 303 304 306 305 303 303 302 305 305 306 306 306 303 301 303 305 307 308 298 278
90 82 83 83 79 74 72 63 60 59 51 46 47 45 46 41 35 31 42 103 108 117 128 139 133 102 96 79 76 85 73 56 359 358 349 341 331 326 317 309 298 295 291 292 288 287 294 303 310 308 309 311 307 307 308 304 308 313 310 307 306 302 300 297 300 303 304 302 300 298 297 300 300 300 299 299 299 298 297 299 301 309 315 310 291
95 92 83 79 81 74 71 67 64 57 53 51 51 42 38 34 37 42 35 104 121 129 140 154 140 115 110 132 160 152 85 50 347 355 335 335 317 311 310 303 299 290 293 291 290 284 288 295 298 296 299 296 297 302 304 308 308 301 303 304 307 305 302 296 295 291 288 295 294 295 297 297 297 294 293 294 295 293 293 295 304 309 309 306 296
95 91 94 86 83 79 72 69 66 63 56 55 52 47 33 26 29 27 36 58 123 134 136 133 129 138 136 159 165 161 130 81 342 326 324 316 309 308 305 304 299 297 294 295 290 290 287 285 293 301 301 303 306 301 305 306 309 310 304 298 301 302 301 301 290 287 292 297 305 302 296 294 291 290 289 291 292 291 289 301 308 304 302 299 293
105 101 95 92 78 79 74 69 63 63 62 54 51 40 39 31 27 25 14 35 71 135 148 145 133 143 153 151 164 177 174 206 309 314 302 307 305 305 301 299 300 301 301 297 299 298 294 292 293 289 296 297 299 307 307 301 298 298 306 311 308 306 294 294 302 300 295 294 280 276 279 284 288 289 288 287 287 290 297 302 298 294 292 291 287
106 107 105 99 90 79 76 73 67 66 60 53 42 32 34 29 27 22 10 36 40 147 159 169 154 162 157 141 162 202 213 225 253 297 285 293 297 302 302 301 304 306 303 303 303 302 300 298 298 303 302 303 304 292 297 304 304 301 305 311 307 311 308 303 298 302 304 294 296 294 279 281 279 279 280 285 288 287 287 287 286 287 290 287 283
105 106 106 103 97 86 70 68 61 51 55 44 29 24 19 22 37 17 359 16 37 156 166 183 219 157 136 159 180 222 242 282 274 288 297 295 299 303 305 310 308 309 305 303 303 302 300 302 303 302 305 307 305 309 314 318 320 317 315 309 298 301 299 299 299 294 288 295 294 285 284 277 279 277 282 280 277 280 279 279 283 285 283 277 277
107 107 104 100 96 93 84 67 61 54 49 32 24 18 14 20 24 24 6 349 24 193 169 182 242 33 123 160 193 217 263 268 275 297 305 309 311 309 305 312 311 309 305 307 306 304 305 308 309 312 312 309 310 310 311 312 311 310 310 310 306 302 296 296 288 272 290 285 288 291 278 260 272 277 269 272 271 272 274 275 270 274 276 272 271
109 107 101 96 90 85 89 87 66 58 41 30 19 37 41 44 56 46 29 12 26 12 209 199 195 118 111 123 250 271 269 286 294 296 310 317 319 318 316 314 311 308 309 309 301 303 308 306 307 309 306 306 306 308 311 313 313 313 311 308 305 304 303 306 307 302 166 304 299 289 286 268 261 279 279 269 271 270 266 265 270 273 272 269 267
110 107 102 102 100 96 89 75 67 55 45 19 40 54 49 46 51 57 47 41 39 43 37 328 268 117 156 212 271 272 275 279 300 315 318 319 319 320 320 318 316 311 303 294 298 306 304 309 310 307 306 303 306 311 313 315 314 311 306 303 302 300 300 296 293 294 310 310 291 293 290 288 277 271 276 270 264 264 266 268 268 267 267 265 263
120 115 121 114 109 107 95 89 75 54 52 22 39 50 53 57 61 63 46 39 32 29 20 17 73 131 188 227 274 289 283 302 318 318 316 314 320 322 320 321 319 316 312 308 300 289 291 298 298 302 303 305 308 309 311 310 312 309 310 308 304 297 291 288 290 294 295 301 289 283 285 286 286 277 272 272 266 267 269 267 265 263 262 261 259
125 126 130 127 124 101 98 98 87 59 46 25 44 52 54 57 61 61 48 43 30 28 25 19 62 160 207 211 270 307 321 325 319 319 318 319 324 322 323 323 319 314 313 309 307 302 299 293 297 298 299 302 300 302 306 311 314 311 310 306 305 299 295 292 290 289 286 282 277 282 277 280 276 272 273 275 268 267 264 263 263 262 259 259 258
137 145 148 138 131 114 106 104 91 67 37 27 53 57 57 57 52 54 39 41 33 24 15 19 18 320 270 261 266 299 320 326 318 317 327 333 325 320 320 320 318 313 310 311 309 309 304 299 294 292 294 296 294 297 304 308 305 303 302 302 302 298 292 287 283 277 276 263 265 264 271 283 282 274 272 275 274 267 261 261 258 258 257 256 256
136 131 138 136 135 133 129 101 87 73 33 40 63 63 63 62 63 43 35 41 33 19 13 9 355 328 275 274 294 315 322 320 315 322 331 337 324 322 322 318 316 312 309 299 301 299 297 297 297 297 298 295 292 294 297 303 306 304 301 296 295 292 294 294 294 295 287 281 261 263 271 278 274 269 277 274 275 276 271 264 262 259 257 255 253
140 150 161 162 158 149 146 121 107 100 56 36 65 68 58 57 62 41 35 31 31 18 359 345 324 324 331 309 287 297 312 313 318 326 329 340 323 323 320 318 314 316 314 315 313 309 307 305 303 302 301 299 295 294 300 303 306 311 310 304 300 302 298 299 298 299 297 299 277 259 267 274 273 270 276 274 271 271 272 268 263 258 256 254 252
146 161 161 158 169 164 154 156 152 139 156 254 82 69 64 58 71 63 44 50 24 20 351 333 323 337 329 334 330 322 320 317 322 326 326 336 325 317 320 322 327 327 321 324 323 317 312 309 308 307 306 303 300 301 304 310 314 314 311 309 307 305 300 299 302 304 300 292 281 256 257 261 279 268 273 276 275 256 260 261 260 257 255 255 252
147 154 157 164 179 180 169 165 175 153 177 193 154 102 90 64 69 62 59 58 40 12 356 346 346 347 329 322 317 319 318 319 324 327 327 333 323 317 317 324 327 326 324 327 323 323 325 323 318 317 314 311 309 310 314 315 315 313 311 304 302 303 300 300 301 304 302 292 282 329 291 278 280 272 274 293 290 280 257 262 255 251 242 244 251